Find Starlink 32783

NORAD ID: 62606 Int'l Des: 2025-008 Owner: SPXS Country: US Constellation: starlink operational
LEOCIRCULAR

实时位置

正在加载3D地球...

关于 Starlink 32783

正在加载描述...

即将过境

Passes for default location (London). Set your location on the main map for personalized predictions.

高度历史

Loading altitude history...

两行轨道根数

1 62606U 25008V 26123.86749150 .00024561 00000-0 89847-3 0 9996
2 62606 43.0028 326.2591 0001850 281.4692 78.5951 15.27602089 74009
Epoch: May 3, 2026 • Age: 13 hours

当前状态

高度 482.1 km
速度 7.63 km/s
星下点 14.37°N, 25.14°W
发射日期 Jan 13, 2025
运行时间 1.3 years
类型 internet

技术详情

分类 Payload
质量 730.00 kg
干质量 700.00 kg
总质量 730.00 kg
长度 0.30 m
直径 4.10 m
跨度 29.00 m
形状 Box + pan
制造商 SPXS
平台类型 Starlink V2M
阶段状态 In Orbit
所有者/国家 SPXS/US

Most Searched